Location: Unspecified
(0.0000°N, 0.0000°E)
Time: 04:54:20
(UTC+00:00)

Vanguard 1 - Pass Details

Date: 13 December 2023
Orbit: 653 x 3826 km, 34.3° (Epoch: 22 February)

Event Time Altitude Azimuth Distance (km) Brightness Sun altitude
Rises 00:06:00 0° 305° (NW) 7,839 - -66.7°
Reaches altitude 10° 00:11:14 10° 304° (NW) 6,907 - -66.5°
Maximum altitude 00:34:57 80° 219° (SW) 3,351 - -64.8°
Exits shadow 00:43:54 39° 138° (SE) 3,707 12.9 -63.9°
Drops below altitude 10° 00:50:45 10° 132° (SE) 4,897 13.9 -63.1°
Sets 00:53:46 0° 131° (SE) 5,567 14.3 -62.7°
